Tracking 28125 objects as of 2-Oct-2023
HD Live streaming from Space Station
objects crossing your sky now

THORAD DELTA 1 DEB

Track THORAD DELTA 1 DEB now!
10-day predictions


NORAD ID: 8164
Int'l Code: 1974-089AE
Perigee: 1,464.9 km
Apogee: 1,657.1 km
Inclination: 101.5 °
Period: 117.2 minutes
Semi major axis: 7931 km
RCS: 0.1159 m2 (medium)
Launch date: November 15, 1974
Source: United States (US)
Launch site: AIR FORCE WESTERN TEST RANGE (AFWTR)

Note: This is SATELLITE DEBRIS
Your satellite tracking list
Your tracking list is empty




NASA's NSSDC Master Catalog

Two Line Element Set (TLE):
1  8164U 74089AE  23275.08151986 -.00000035  00000-0  41190-4 0  9992
2  8164 101.5046  86.1101 0121121  29.2330  94.0867 12.28939437193366
Source of the keplerian elements: AFSPC